EDT,Max TemperatureF,Mean TemperatureF,Min TemperatureF,Max Dew PointF,MeanDew PointF,Min DewpointF,Max Humidity, Mean Humidity, Min Humidity, Max Sea Level PressureIn, Mean Sea Level PressureIn, Min Sea Level PressureIn, Max VisibilityMiles, Mean VisibilityMiles, Min VisibilityMiles, Max Wind SpeedMPH, Mean Wind SpeedMPH, Max Gust SpeedMPH,PrecipitationIn, CloudCover, Events, WindDirDegrees
2013-8-1,80,70,60,66,61,52,94,77,40,29.97,29.93,29.91,10,7,4,10,3,22,0.00,4,,292
2013-8-2,73,63,54,67,61,51,94,85,68,30.02,29.94,29.87,10,8,1,13,4,22,0.50,6,Rain,213
2013-8-3,81,72,64,65,61,54,100,79,42,30.05,29.99,29.94,10,6,0,13,3,16,0.01,5,Fog-Rain,347
2013-8-4,77,64,53,57,53,50,93,67,44,30.17,30.13,30.06,10,10,10,13,5,18,0.00,1,,337
2013-8-5,75,63,51,60,55,49,94,76,49,30.13,30.08,29.97,10,9,2,7,1,,0.00,2,,187
2013-8-6,80,72,64,67,63,59,90,76,60,29.98,29.94,29.91,10,9,5,12,4,,0.05,6,Rain,184
2013-8-7,82,74,66,71,68,64,94,85,67,29.93,29.89,29.85,10,5,2,9,2,16,0.09,5,Rain-Thunderstorm,183
2013-8-8,75,72,68,68,66,63,94,85,73,29.99,29.95,29.91,10,7,0,10,3,,0.00,6,Fog,30
2013-8-9,82,74,66,66,61,52,90,71,44,30.03,29.98,29.95,10,9,5,7,2,,0.00,4,,24
2013-8-10,81,72,64,66,63,60,90,76,60,30.12,30.09,30.04,10,10,10,8,3,,0.00,5,,64
2013-8-11,82,69,57,61,58,55,94,75,44,30.13,30.10,30.05,10,7,2,9,1,,0.01,2,,338
2013-8-12,84,72,61,66,63,59,93,72,51,30.08,29.97,29.85,10,9,3,8,2,,0.00,3,Rain,214
2013-8-13,72,66,55,63,53,45,93,68,41,30.08,29.97,29.86,10,10,6,16,7,23,0.00,2,,335
2013-8-14,72,60,48,52,47,44,86,66,41,30.20,30.16,30.10,10,10,10,10,5,,0.00,1,,354
2013-8-15,75,62,48,54,49,45,93,67,38,30.20,30.16,30.12,10,10,10,7,0,,0.00,1,,330
2013-8-16,80,66,54,55,53,50,90,66,36,30.21,30.17,30.14,10,10,10,6,1,,0.00,1,,85
2013-8-17,80,66,51,59,54,48,93,70,38,30.26,30.22,30.19,10,9,2,8,2,16,0.01,0,,55
2013-8-18,82,68,55,63,57,53,97,77,38,30.23,30.18,30.12,10,6,0,8,1,,0.00,2,Fog,48
2013-8-19,84,70,55,61,57,54,96,68,38,30.15,30.11,30.06,10,8,2,8,1,,0.00,2,,218
2013-8-20,86,70,57,65,59,55,100,80,43,30.17,30.12,30.09,10,5,0,8,1,,0.00,1,Fog,201
2013-8-21,86,74,64,67,64,61,87,73,49,30.17,30.10,30.03,10,8,4,9,3,,0.00,1,,195
2013-8-22,84,75,68,72,68,65,93,82,60,30.07,30.05,30.00,10,7,0,18,4,30,0.25,5,Fog-Rain-Thunderstorm,265
2013-8-23,84,72,60,66,60,51,94,72,34,30.19,30.12,30.06,10,8,2,10,4,,0.00,1,,13
2013-8-24,82,68,54,61,55,52,93,66,37,30.32,30.27,30.20,10,10,5,12,2,,0.01,0,,105
2013-8-25,88,71,55,63,59,54,93,65,39,30.32,30.26,30.20,10,10,10,12,4,18,0.00,0,,214
2013-8-26,89,76,64,68,63,58,84,65,46,30.21,30.12,30.02,10,10,9,10,5,17,0.00,0,,226
2013-8-27,89,80,71,73,70,67,91,77,59,30.03,29.97,29.89,10,7,2,13,4,18,0.05,3,Rain,208
2013-8-28,88,80,73,72,70,67,87,71,59,30.00,29.90,29.83,10,10,8,15,7,17,0.00,3,,339
2013-8-29,88,76,66,70,66,64,94,79,49,30.09,30.04,30.00,10,7,2,8,2,,0.00,1,,55
2013-8-30,90,76,62,68,64,60,94,77,45,30.01,29.94,29.75,10,7,0,13,2,20,0.01,1,Fog,217
2013-8-31,88,79,71,70,69,67,94,75,53,29.86,29.81,29.73,10,8,2,10,4,,0.00,5,,349